• In Hungary
  • List of Countries
  • For 7 days
  • Water Temperature
  • Satellite Maps
  • Weather Map
  • News
  • Weather Widgets
  • user-avatar
    Login

    Hourly Weather Kabul

    Today, 17 August, Thursday

    Time Temperature Precipitation Wind Pressure Humidity
    00:00 +23°C° 0 mm 2 mps 608 mmHg 21%
    01:00 +21°C° 0 mm 2 mps 608 mmHg 21%
    02:00 +20°C° 0 mm 2 mps 608 mmHg 21%
    03:00 +20°C° 0 mm 2 mps 607 mmHg 22%
    04:00 +19°C° 0 mm 2 mps 607 mmHg 23%
    05:00 +20°C° 0 mm 2 mps 607 mmHg 22%
    06:00 +21°C° 0 mm 2 mps 608 mmHg 20%
    07:00 +23°C° 0 mm 2 mps 608 mmHg 19%
    08:00 +24°C° 0 mm 2 mps 609 mmHg 17%
    09:00 +26°C° 0 mm 2 mps 609 mmHg 15%
    10:00 +27°C° 0 mm 2 mps 610 mmHg 14%
    11:00 +28°C° 0 mm 3 mps 610 mmHg 12%
    12:00 +29°C° 0 mm 3 mps 610 mmHg 11%
    13:00 +30°C° 0 mm 3 mps 610 mmHg 10%
    14:00 +31°C° 0 mm 3 mps 611 mmHg 9%
    15:00 +31°C° 0 mm 3 mps 610 mmHg 9%
    16:00 +32°C° 0 mm 4 mps 610 mmHg 9%
    17:00 +32°C° 0 mm 4 mps 610 mmHg 8%
    18:00 +29°C° 0 mm 3 mps 610 mmHg 10%
    19:00 +28°C° 0 mm 3 mps 610 mmHg 12%
    20:00 +26°C° 0 mm 3 mps 609 mmHg 14%
    21:00 +25°C° 0 mm 3 mps 609 mmHg 15%
    22:00 +24°C° 0 mm 2 mps 609 mmHg 17%
    23:00 +23°C° 0 mm 2 mps 609 mmHg 18%

    Tomorrow, 18 August, Friday

    Time Temperature Precipitation Wind Pressure Humidity
    00:00 +23°C° 0 mm 2 mps 609 mmHg 19%
    01:00 +21°C° 0 mm 2 mps 608 mmHg 21%
    02:00 +20°C° 0 mm 2 mps 608 mmHg 22%
    03:00 +20°C° 0 mm 2 mps 608 mmHg 22%
    04:00 +19°C° 0 mm 2 mps 608 mmHg 23%
    05:00 +19°C° 0 mm 2 mps 607 mmHg 23%
    06:00 +20°C° 0 mm 2 mps 608 mmHg 21%
    07:00 +22°C° 0 mm 1 mps 609 mmHg 18%
    08:00 +24°C° 0 mm 1 mps 610 mmHg 16%
    09:00 +25°C° 0 mm 1 mps 610 mmHg 14%
    10:00 +27°C° 0 mm 1 mps 610 mmHg 12%
    11:00 +28°C° 0 mm 1 mps 611 mmHg 10%
    12:00 +29°C° 0 mm 1 mps 611 mmHg 10%
    13:00 +30°C° 0 mm 2 mps 611 mmHg 9%
    14:00 +31°C° 0 mm 2 mps 611 mmHg 8%
    15:00 +31°C° 0 mm 2 mps 611 mmHg 8%
    16:00 +31°C° 0 mm 2 mps 610 mmHg 8%
    17:00 +31°C° 0 mm 3 mps 610 mmHg 8%
    18:00 +30°C° 0 mm 2 mps 610 mmHg 10%
    19:00 +28°C° 0 mm 2 mps 610 mmHg 11%
    20:00 +27°C° 0 mm 2 mps 610 mmHg 13%
    21:00 +26°C° 0 mm 2 mps 609 mmHg 15%
    22:00 +25°C° 0 mm 2 mps 609 mmHg 17%
    23:00 +24°C° 0 mm 2 mps 609 mmHg 19%

    Day after tomorrow, 19 August, Saturday

    Time Temperature Precipitation Wind Pressure Humidity
    00:00 +23°C° 0 mm 1 mps 609 mmHg 20%
    01:00 +23°C° 0 mm 1 mps 609 mmHg 22%
    02:00 +22°C° 0 mm 1 mps 608 mmHg 24%
    03:00 +21°C° 0 mm 1 mps 608 mmHg 25%
    04:00 +21°C° 0 mm 1 mps 608 mmHg 26%
    05:00 +20°C° 0 mm 1 mps 608 mmHg 27%
    06:00 +22°C° 0 mm 1 mps 609 mmHg 24%
    07:00 +23°C° 0 mm 1 mps 610 mmHg 22%
    08:00 +25°C° 0 mm 1 mps 611 mmHg 19%
    09:00 +26°C° 0 mm 1 mps 611 mmHg 17%
    10:00 +27°C° 0 mm 1 mps 611 mmHg 15%
    11:00 +28°C° 0 mm 1 mps 612 mmHg 13%
    12:00 +29°C° 0 mm 2 mps 612 mmHg 12%
    13:00 +30°C° 0 mm 2 mps 612 mmHg 11%
    14:00 +31°C° 0 mm 2 mps 612 mmHg 10%
    15:00 +32°C° 0 mm 2 mps 612 mmHg 10%
    16:00 +33°C° 0 mm 3 mps 612 mmHg 10%
    17:00 +33°C° 0 mm 3 mps 611 mmHg 9%
    18:00 +30°C° 0 mm 3 mps 611 mmHg 11%
    19:00 +29°C° 0 mm 3 mps 611 mmHg 13%
    20:00 +27°C° 0 mm 2 mps 611 mmHg 15%
    21:00 +26°C° 0 mm 2 mps 611 mmHg 17%
    22:00 +25°C° 0 mm 2 mps 611 mmHg 19%
    23:00 +24°C° 0 mm 2 mps 611 mmHg 21%

    20 August, Sunday

    Time Temperature Precipitation Wind Pressure Humidity
    00:00 +24°C° 0 mm 2 mps 610 mmHg 22%
    01:00 +23°C° 0 mm 1 mps 610 mmHg 23%
    02:00 +22°C° 0 mm 1 mps 610 mmHg 25%
    03:00 +22°C° 0 mm 1 mps 610 mmHg 25%
    04:00 +21°C° 0 mm 1 mps 610 mmHg 26%
    05:00 +21°C° 0 mm 1 mps 609 mmHg 26%
    06:00 +22°C° 0 mm 1 mps 610 mmHg 24%
    07:00 +23°C° 0 mm 1 mps 611 mmHg 21%
    08:00 +25°C° 0 mm 1 mps 612 mmHg 19%
    09:00 +26°C° 0 mm 2 mps 612 mmHg 17%
    10:00 +27°C° 0 mm 2 mps 612 mmHg 15%
    11:00 +28°C° 0 mm 2 mps 612 mmHg 13%
    12:00 +29°C° 0 mm 2 mps 612 mmHg 12%
    13:00 +30°C° 0 mm 3 mps 612 mmHg 12%
    14:00 +31°C° 0 mm 3 mps 612 mmHg 11%
    15:00 +31°C° 0 mm 3 mps 612 mmHg 11%
    16:00 +32°C° 0 mm 4 mps 612 mmHg 11%
    17:00 +32°C° 0 mm 4 mps 611 mmHg 10%
    18:00 +30°C° 0 mm 4 mps 611 mmHg 12%
    19:00 +28°C° 0 mm 4 mps 611 mmHg 14%
    20:00 +26°C° 0 mm 3 mps 610 mmHg 16%
    21:00 +25°C° 0 mm 3 mps 610 mmHg 17%
    22:00 +24°C° 0 mm 3 mps 610 mmHg 18%
    23:00 +24°C° 0 mm 2 mps 610 mmHg 19%

    21 August, Monday

    Time Temperature Precipitation Wind Pressure Humidity
    00:00 +23°C° 0 mm 2 mps 610 mmHg 20%
    01:00 +21°C° 0 mm 2 mps 609 mmHg 21%
    02:00 +21°C° 0 mm 2 mps 609 mmHg 22%
    03:00 +20°C° 0 mm 2 mps 609 mmHg 22%
    04:00 +20°C° 0 mm 2 mps 608 mmHg 23%
    05:00 +19°C° 0 mm 2 mps 608 mmHg 23%
    06:00 +20°C° 0 mm 2 mps 609 mmHg 21%
    07:00 +21°C° 0 mm 2 mps 610 mmHg 19%
    08:00 +24°C° 0 mm 2 mps 610 mmHg 17%
    09:00 +25°C° 0 mm 2 mps 611 mmHg 16%
    10:00 +26°C° 0 mm 2 mps 611 mmHg 14%
    11:00 +28°C° 0 mm 2 mps 611 mmHg 12%
    12:00 +29°C° 0 mm 2 mps 611 mmHg 11%
    13:00 +30°C° 0 mm 2 mps 611 mmHg 10%
    14:00 +31°C° 0 mm 2 mps 611 mmHg 9%
    15:00 +31°C° 0 mm 3 mps 610 mmHg 9%
    16:00 +31°C° 0 mm 3 mps 610 mmHg 9%
    17:00 +31°C° 0 mm 3 mps 610 mmHg 9%
    18:00 +30°C° 0 mm 3 mps 610 mmHg 11%
    19:00 +28°C° 0 mm 3 mps 609 mmHg 13%
    20:00 +26°C° 0 mm 3 mps 609 mmHg 16%
    21:00 +25°C° 0 mm 2 mps 609 mmHg 17%
    22:00 +24°C° 0 mm 2 mps 609 mmHg 19%
    23:00 +24°C° 0 mm 2 mps 608 mmHg 21%

    22 August, Tuesday

    Time Temperature Precipitation Wind Pressure Humidity
    00:00 +23°C° 0 mm 2 mps 608 mmHg 22%
    01:00 +21°C° 0 mm 2 mps 608 mmHg 23%
    02:00 +21°C° 0 mm 2 mps 607 mmHg 25%
    03:00 +20°C° 0 mm 2 mps 607 mmHg 25%
    04:00 +20°C° 0 mm 2 mps 607 mmHg 26%
    05:00 +20°C° 0 mm 1 mps 607 mmHg 26%
    06:00 +21°C° 0 mm 1 mps 608 mmHg 24%
    07:00 +23°C° 0 mm 1 mps 609 mmHg 22%
    08:00 +24°C° 0 mm 1 mps 610 mmHg 20%
    09:00 +25°C° 0 mm 1 mps 610 mmHg 18%
    10:00 +26°C° 0 mm 1 mps 610 mmHg 16%
    11:00 +28°C° 0 mm 1 mps 611 mmHg 15%
    12:00 +29°C° 0 mm 2 mps 610 mmHg 14%
    13:00 +30°C° 0 mm 2 mps 610 mmHg 13%
    14:00 +30°C° 0 mm 2 mps 610 mmHg 12%
    15:00 +31°C° 0 mm 2 mps 610 mmHg 12%
    16:00 +31°C° 0 mm 3 mps 610 mmHg 12%
    17:00 +31°C° 0 mm 3 mps 610 mmHg 12%
    18:00 +29°C° 0 mm 3 mps 609 mmHg 14%
    19:00 +28°C° 0 mm 3 mps 609 mmHg 16%
    20:00 +26°C° 0 mm 3 mps 609 mmHg 18%
    21:00 +26°C° 0 mm 2 mps 609 mmHg 21%
    22:00 +25°C° 0 mm 2 mps 609 mmHg 23%
    23:00 +24°C° 0 mm 2 mps 609 mmHg 25%
    Show more